When you browse on this site, cookies collect data to enhance your experience and personalize the content and advertising you see.
Visit our Privacy Policy to learn more. By continuing to use the site, you agree to this use of cookies and data.
  • In Hungary
  • List of Countries
  • For 7 days
  • Water Temperature
  • Satellite Maps
  • Weather Map
  • News
  • Weather Widgets
  • user-avatar
    Login

    Hourly Weather Laranjeiras do Sul

    Today, 20 November, Tuesday

    Time Temperature Precipitation Wind Pressure Humidity
    00:00 +17°C° 0 mm 2 mps 689 mmHg 89%
    01:00 +17°C° 0 mm 2 mps 689 mmHg 89%
    02:00 +16°C° 0 mm 2 mps 689 mmHg 89%
    03:00 +16°C° 0 mm 2 mps 689 mmHg 89%
    04:00 +15°C° 0 mm 2 mps 689 mmHg 90%
    05:00 +14°C° 0 mm 2 mps 689 mmHg 91%
    06:00 +14°C° 0 mm 1 mps 689 mmHg 92%
    07:00 +16°C° 0 mm 1 mps 689 mmHg 81%
    08:00 +20°C° 0 mm 1 mps 690 mmHg 70%
    09:00 +23°C° 0 mm 1 mps 691 mmHg 60%
    10:00 +25°C° 0 mm 1 mps 691 mmHg 54%
    11:00 +28°C° 0 mm 1 mps 691 mmHg 48%
    12:00 +30°C° 0 mm 1 mps 691 mmHg 42%
    13:00 +30°C° 0 mm 1 mps 691 mmHg 40%
    14:00 +30°C° 0 mm 1 mps 690 mmHg 38%
    15:00 +30°C° 0 mm 1 mps 690 mmHg 36%
    16:00 +29°C° 0 mm 1 mps 689 mmHg 44%
    17:00 +28°C° 0 mm 1 mps 688 mmHg 51%
    18:00 +26°C° 0 mm 1 mps 688 mmHg 58%
    19:00 +24°C° 0 mm 1 mps 688 mmHg 63%
    20:00 +22°C° 0 mm 1 mps 688 mmHg 69%
    21:00 +20°C° 0 mm 1 mps 688 mmHg 74%
    22:00 +19°C° 0 mm 2 mps 689 mmHg 75%
    23:00 +18°C° 0 mm 2 mps 689 mmHg 76%

    Tomorrow, 21 November, Wednesday

    Time Temperature Precipitation Wind Pressure Humidity
    00:00 +18°C° 0 mm 2 mps 689 mmHg 77%
    01:00 +17°C° 0 mm 2 mps 689 mmHg 81%
    02:00 +16°C° 0 mm 2 mps 689 mmHg 84%
    03:00 +15°C° 0 mm 2 mps 689 mmHg 88%
    04:00 +15°C° 0 mm 2 mps 689 mmHg 87%
    05:00 +14°C° 0 mm 2 mps 689 mmHg 87%
    06:00 +14°C° 0 mm 2 mps 689 mmHg 86%
    07:00 +16°C° 0 mm 2 mps 690 mmHg 75%
    08:00 +18°C° 0 mm 2 mps 690 mmHg 63%
    09:00 +21°C° 0 mm 2 mps 691 mmHg 52%
    10:00 +24°C° 0 mm 2 mps 691 mmHg 45%
    11:00 +27°C° 0 mm 2 mps 691 mmHg 38%
    12:00 +29°C° 0 mm 2 mps 691 mmHg 31%
    13:00 +30°C° 0 mm 1 mps 690 mmHg 29%
    14:00 +30°C° 0 mm 1 mps 690 mmHg 28%
    15:00 +31°C° 0 mm 1 mps 689 mmHg 27%
    16:00 +30°C° 0 mm 1 mps 689 mmHg 34%
    17:00 +28°C° 0 mm 1 mps 688 mmHg 41%
    18:00 +27°C° 0 mm 1 mps 687 mmHg 49%
    19:00 +25°C° 0 mm 1 mps 687 mmHg 52%
    20:00 +22°C° 0 mm 1 mps 687 mmHg 55%
    21:00 +19°C° 0 mm 2 mps 688 mmHg 59%
    22:00 +19°C° 0 mm 2 mps 688 mmHg 65%
    23:00 +19°C° 0 mm 2 mps 688 mmHg 72%

    Day after tomorrow, 22 November, Thursday

    Time Temperature Precipitation Wind Pressure Humidity
    00:00 +19°C° 0 mm 3 mps 689 mmHg 78%
    01:00 +18°C° 0 mm 2 mps 688 mmHg 81%
    02:00 +18°C° 0 mm 2 mps 688 mmHg 85%
    03:00 +17°C° 0 mm 2 mps 688 mmHg 88%
    04:00 +17°C° 0 mm 2 mps 688 mmHg 89%
    05:00 +17°C° 0 mm 2 mps 688 mmHg 90%
    06:00 +17°C° 0 mm 2 mps 688 mmHg 91%
    07:00 +19°C° 0 mm 2 mps 689 mmHg 82%
    08:00 +21°C° 0 mm 3 mps 689 mmHg 74%
    09:00 +25°C° 0 mm 3 mps 690 mmHg 65%
    10:00 +26°C° 0.1 mm 3 mps 690 mmHg 61%
    11:00 +28°C° 0.1 mm 3 mps 690 mmHg 57%
    12:00 +29°C° 0.1 mm 3 mps 690 mmHg 53%
    13:00 +29°C° 0.2 mm 2 mps 689 mmHg 53%
    14:00 +30°C° 0.2 mm 2 mps 689 mmHg 53%
    15:00 +30°C° 0.2 mm 1 mps 688 mmHg 53%
    16:00 +29°C° 0.1 mm 1 mps 687 mmHg 58%
    17:00 +28°C° 0.1 mm 1 mps 687 mmHg 63%
    18:00 +27°C° 0.1 mm 1 mps 686 mmHg 67%
    19:00 +25°C° 0 mm 1 mps 687 mmHg 73%
    20:00 +23°C° 0 mm 1 mps 687 mmHg 79%
    21:00 +22°C° 0 mm 1 mps 687 mmHg 84%
    22:00 +21°C° 0 mm 1 mps 687 mmHg 86%
    23:00 +20°C° 0 mm 2 mps 687 mmHg 88%

    23 November, Friday

    Time Temperature Precipitation Wind Pressure Humidity
    00:00 +19°C° 0 mm 2 mps 687 mmHg 90%
    01:00 +19°C° 0 mm 2 mps 686 mmHg 90%
    02:00 +19°C° 0 mm 2 mps 686 mmHg 90%
    03:00 +19°C° 0 mm 2 mps 686 mmHg 91%
    04:00 +19°C° 0 mm 2 mps 686 mmHg 91%
    05:00 +18°C° 0 mm 2 mps 686 mmHg 92%
    06:00 +18°C° 0 mm 2 mps 687 mmHg 93%
    07:00 +20°C° 0 mm 2 mps 687 mmHg 84%
    08:00 +24°C° 0 mm 2 mps 688 mmHg 75%
    09:00 +26°C° 0 mm 3 mps 689 mmHg 67%
    10:00 +27°C° 0.4 mm 3 mps 688 mmHg 64%
    11:00 +28°C° 0.4 mm 3 mps 688 mmHg 61%
    12:00 +29°C° 0.4 mm 2 mps 688 mmHg 57%
    13:00 +29°C° 0.4 mm 2 mps 687 mmHg 58%
    14:00 +29°C° 0.4 mm 2 mps 686 mmHg 59%
    15:00 +29°C° 0.4 mm 2 mps 686 mmHg 59%
    16:00 +28°C° 0.6 mm 1 mps 685 mmHg 67%
    17:00 +26°C° 0.6 mm 1 mps 685 mmHg 76%
    18:00 +25°C° 0.6 mm 1 mps 685 mmHg 84%
    19:00 +24°C° 0.4 mm 1 mps 685 mmHg 86%
    20:00 +21°C° 0.4 mm 0 mps 685 mmHg 88%
    21:00 +19°C° 0.4 mm 0 mps 686 mmHg 91%
    22:00 +21°C° 1.3 mm 1 mps 686 mmHg 93%
    23:00 +21°C° 1.3 mm 1 mps 686 mmHg 95%

    24 November, Saturday

    Time Temperature Precipitation Wind Pressure Humidity
    00:00 +20°C° 1.3 mm 1 mps 686 mmHg 97%
    01:00 +20°C° 1.6 mm 1 mps 685 mmHg 97%
    02:00 +20°C° 1.6 mm 1 mps 685 mmHg 97%
    03:00 +18°C° 1.6 mm 0 mps 685 mmHg 96%
    04:00 +20°C° 1.4 mm 1 mps 685 mmHg 97%
    05:00 +20°C° 1.4 mm 1 mps 685 mmHg 97%
    06:00 +19°C° 1.4 mm 1 mps 685 mmHg 98%
    07:00 +20°C° 1.3 mm 1 mps 685 mmHg 97%
    08:00 +19°C° 1.3 mm 2 mps 686 mmHg 97%
    09:00 +19°C° 1.3 mm 2 mps 686 mmHg 97%
    10:00 +20°C° 0.8 mm 2 mps 686 mmHg 92%
    11:00 +21°C° 0.8 mm 3 mps 686 mmHg 88%
    12:00 +22°C° 0.8 mm 3 mps 686 mmHg 84%
    13:00 +22°C° 0.5 mm 3 mps 686 mmHg 82%
    14:00 +24°C° 0.5 mm 3 mps 685 mmHg 81%
    15:00 +24°C° 0.5 mm 3 mps 685 mmHg 79%
    16:00 +24°C° 0.4 mm 2 mps 684 mmHg 81%
    17:00 +24°C° 0.4 mm 2 mps 684 mmHg 84%
    18:00 +23°C° 0.4 mm 2 mps 684 mmHg 87%
    19:00 +22°C° 0.1 mm 1 mps 684 mmHg 90%
    20:00 +21°C° 0.1 mm 1 mps 685 mmHg 93%
    21:00 +20°C° 0.1 mm 1 mps 685 mmHg 96%
    22:00 +19°C° 0 mm 1 mps 685 mmHg 96%
    23:00 +19°C° 0 mm 1 mps 685 mmHg 97%

    25 November, Sunday

    Time Temperature Precipitation Wind Pressure Humidity
    00:00 +18°C° 0 mm 1 mps 685 mmHg 97%
    01:00 +18°C° 0 mm 1 mps 684 mmHg 98%
    02:00 +18°C° 0 mm 1 mps 684 mmHg 98%
    03:00 +18°C° 0 mm 1 mps 684 mmHg 98%
    04:00 +18°C° 0 mm 1 mps 684 mmHg 98%
    05:00 +18°C° 0 mm 1 mps 684 mmHg 98%
    06:00 +18°C° 0 mm 1 mps 684 mmHg 98%
    07:00 +20°C° 0 mm 1 mps 685 mmHg 89%
    08:00 +23°C° 0 mm 1 mps 686 mmHg 80%
    09:00 +25°C° 0 mm 1 mps 686 mmHg 71%
    10:00 +26°C° 0.1 mm 1 mps 686 mmHg 65%
    11:00 +28°C° 0.1 mm 1 mps 686 mmHg 60%
    12:00 +30°C° 0.1 mm 1 mps 686 mmHg 54%
    13:00 +29°C° 0.1 mm 1 mps 685 mmHg 55%
    14:00 +29°C° 0.1 mm 1 mps 685 mmHg 55%
    15:00 +29°C° 0.1 mm 1 mps 684 mmHg 55%
    16:00 +28°C° 0.1 mm 1 mps 684 mmHg 61%
    17:00 +28°C° 0.1 mm 1 mps 684 mmHg 67%
    18:00 +27°C° 0.1 mm 1 mps 684 mmHg 73%
    19:00 +25°C° 0.1 mm 1 mps 684 mmHg 79%
    20:00 +23°C° 0.1 mm 2 mps 684 mmHg 85%
    21:00 +20°C° 0.1 mm 2 mps 684 mmHg 92%
    22:00 +20°C° 0 mm 2 mps 684 mmHg 92%
    23:00 +19°C° 0 mm 2 mps 685 mmHg 92%
    Show more